period_start,C,m1,H,J0,J1,J2,J3,J4,J5,JA,JB,JC,JD,JJ,JK,JN,#
2016-06-24 00:03:42,0.01,0.06,0.00,18.60,24.51,27.99,14.69,45.67,1009.29,2050.98,3540.17,3068.91,3485.04,599.75,600.45,9.64,0000 0000 0000 0000 000000
2016-06-24 00:08:43,0.04,0.06,0.00,18.58,24.52,28.11,14.77,45.98,1009.29,2050.98,3539.70,3068.07,3484.74,600.02,600.90,9.69,0000 0000 0000 0000 000000
2016-06-24 00:13:44,0.01,0.06,0.00,18.63,24.54,28.02,14.76,45.98,1009.33,2050.97,3539.25,3068.00,3484.11,600.13,600.74,9.75,0000 0000 0000 0000 000000
2016-06-24 00:18:46,0.00,0.06,0.00,18.72,24.56,27.92,14.74,45.81,1009.56,2050.95,3539.14,3067.98,3484.03,600.06,600.65,9.80,0000 0000 0000 0000 000000
2016-06-24 00:23:47,-0.01,0.06,0.00,18.75,24.57,27.96,14.64,45.70,1009.64,2050.79,3539.01,3067.91,3484.00,599.50,600.11,9.85,0000 0000 0000 0000 000000
2016-06-24 00:28:48,-0.01,0.06,0.00,18.79,24.60,27.93,14.66,45.64,1009.66,2050.63,3538.99,3067.35,3483.97,600.14,600.67,9.90,0000 0000 0000 0000 000000
2016-06-24 00:33:49,-0.00,0.06,0.00,18.83,24.61,27.92,14.65,45.63,1009.44,2050.32,3538.68,3067.05,3483.63,599.88,600.21,9.95,0000 0000 0000 0000 000000
2016-06-24 00:38:51,-0.00,0.06,0.00,18.86,24.63,27.91,14.68,45.73,1009.58,2050.21,3538.09,3067.01,3483.09,599.90,600.31,10.00,0000 0000 0000 0000 000000
2016-06-24 00:43:52,-0.01,0.06,0.00,18.88,24.66,27.87,14.65,45.73,1009.74,2050.03,3538.02,3066.99,3483.00,599.79,599.99,10.05,0000 0000 0000 0000 000000
2016-06-24 00:48:53,0.01,0.06,0.00,18.93,24.67,27.91,14.74,45.83,1009.77,2050.02,3537.82,3066.61,3482.91,599.87,600.13,10.10,0000 0000 0000 0000 000000
2016-06-24 00:53:54,0.02,0.06,0.00,19.01,24.70,27.90,14.59,45.50,1009.70,2050.00,3537.33,3066.09,3482.29,599.87,599.94,10.15,0000 0000 0000 0000 000000
2016-06-24 00:58:56,0.00,0.06,0.00,19.02,24.72,27.96,14.68,45.75,1009.48,2050.00,3537.01,3066.00,3482.01,600.12,599.96,10.20,0000 0000 0000 0000 000000
2016-06-24 01:03:57,0.00,0.06,0.00,19.08,24.74,27.90,14.79,45.92,1009.50,2050.00,3537.00,3066.00,3482.00,600.35,600.06,10.25,0000 0000 0000 0000 000000
2016-06-24 01:08:58,0.00,0.06,0.00,19.11,24.76,27.98,14.63,45.61,1009.49,2049.98,3536.97,3065.95,3481.87,599.59,599.40,10.30,0000 0000 0000 0000 000000
2016-06-24 01:13:59,0.04,0.06,0.00,19.15,24.77,28.05,14.65,45.58,1009.44,2049.92,3536.38,3065.30,3481.14,600.13,599.81,10.35,0000 0000 0000 0000 000000
2016-06-24 01:19:01,-0.01,0.06,0.00,19.22,24.80,28.10,14.69,45.52,1009.37,2049.76,3536.00,3065.01,3481.00,599.99,599.38,10.40,0000 0000 0000 0000 000000
2016-06-24 01:24:02,-0.06,0.06,0.00,19.23,24.81,28.06,14.71,45.60,1009.41,2049.39,3535.99,3065.00,3480.96,600.00,599.33,10.45,0000 0000 0000 0000 000000
2016-06-24 01:29:03,0.01,0.06,0.00,19.23,24.83,28.11,14.66,45.39,1009.35,2049.04,3535.45,3064.91,3480.32,600.15,599.54,10.50,0000 0000 0000 0000 000000
2016-06-24 01:34:04,0.02,0.06,0.00,19.21,24.85,28.07,14.64,45.43,1009.31,2049.03,3535.01,3064.38,3480.02,599.88,599.24,10.55,0000 0000 0000 0000 000000
2016-06-24 01:39:06,0.00,0.06,0.00,19.26,24.87,28.10,14.67,45.39,1009.35,2049.01,3534.78,3064.02,3479.99,599.97,599.33,10.60,0000 0000 0000 0000 000000
2016-06-24 01:44:07,0.01,0.06,0.00,19.27,24.90,28.15,14.66,45.53,1009.37,2049.01,3534.30,3064.00,3479.77,600.06,599.25,10.65,0000 0000 0000 0000 000000
2016-06-24 01:49:08,0.01,0.06,0.00,19.33,24.92,28.19,14.70,45.46,1009.39,2049.00,3534.00,3063.98,3479.11,600.03,599.14,10.70,0000 0000 0000 0000 000000
2016-06-24 01:54:09,0.02,0.06,0.00,19.37,24.95,28.19,14.64,45.47,1009.47,2049.00,3533.88,3063.51,3479.00,599.93,599.11,10.75,0000 0000 0000 0000 000000
2016-06-24 01:59:10,0.02,0.06,0.00,19.43,24.97,28.19,14.57,45.45,1009.70,2048.99,3533.14,3063.03,3478.89,599.81,599.02,10.80,0000 0000 0000 0000 000000
2016-06-24 02:04:12,0.01,0.06,0.00,19.46,25.01,28.21,14.70,45.36,1009.75,2048.98,3532.99,3062.99,3478.12,600.33,599.49,10.85,0000 0000 0000 0000 000000
2016-06-24 02:09:13,0.04,0.06,0.00,19.45,25.04,28.24,14.74,45.48,1009.78,2048.97,3532.42,3062.57,3477.64,599.96,599.21,10.90,0000 0000 0000 0000 000000
2016-06-24 02:14:14,0.02,0.07,0.00,19.50,25.07,28.24,14.65,45.40,1009.78,2048.96,3531.51,3062.00,3477.01,599.99,599.03,10.95,0000 0000 0000 0000 000000
2016-06-24 02:19:15,-0.02,0.07,0.00,19.52,25.10,28.26,14.61,45.55,1009.78,2048.79,3531.24,3061.98,3476.82,599.95,598.96,11.00,0000 0000 0000 0000 000000
2016-06-24 02:24:17,-0.02,0.07,0.00,19.59,25.13,28.30,14.68,45.52,1009.77,2048.19,3531.01,3061.41,3476.11,600.17,599.18,11.05,0000 0000 0000 0000 000000
2016-06-24 02:29:18,0.00,0.07,0.00,19.64,25.16,28.36,14.63,45.46,1009.75,2048.02,3530.89,3061.05,3476.00,600.07,598.79,11.10,0000 0000 0000 0000 000000
2016-06-24 02:34:19,0.01,0.07,0.00,19.67,25.19,28.38,14.63,45.35,1009.76,2048.00,3530.59,3060.99,3475.66,600.08,598.87,11.15,0000 0000 0000 0000 000000
2016-06-24 02:39:20,0.04,0.07,0.00,19.71,25.23,28.42,14.63,45.33,1009.74,2047.97,3529.78,3060.50,3474.86,599.97,598.69,11.20,0000 0000 0000 0000 000000
2016-06-24 02:44:22,-0.01,0.07,0.00,19.77,25.26,28.47,14.70,45.53,1009.77,2047.74,3529.05,3059.98,3474.07,600.32,598.89,11.25,0000 0000 0000 0000 000000
2016-06-24 02:49:23,-0.02,0.07,0.00,19.85,25.30,28.53,14.62,45.36,1009.72,2047.27,3529.00,3059.57,3474.00,599.92,598.25,11.30,0000 0000 0000 0000 000000
2016-06-24 02:54:24,-0.00,0.07,0.00,19.87,25.34,28.60,14.62,45.38,1009.64,2047.02,3528.96,3059.03,3473.51,600.12,598.36,11.35,0000 0000 0000 0000 000000
2016-06-24 02:59:26,0.02,0.07,0.00,19.89,25.38,28.63,14.64,45.48,1009.52,2047.00,3528.38,3058.77,3473.02,600.19,598.35,11.40,0000 0000 0000 0000 000000
2016-06-24 03:04:27,0.01,0.07,0.00,19.94,25.41,28.63,14.58,45.33,1009.68,2047.00,3528.04,3058.12,3472.98,600.00,598.19,11.45,0000 0000 0000 0000 000000
2016-06-24 03:09:28,0.01,0.07,0.00,19.98,25.46,28.66,14.63,45.24,1009.75,2047.00,3527.91,3058.00,3472.41,600.26,598.42,11.50,0000 0000 0000 0000 000000
2016-06-24 03:14:29,0.01,0.07,0.00,20.02,25.50,28.72,14.62,45.27,1009.77,2047.00,3527.12,3057.87,3472.01,599.78,597.67,11.55,0000 0000 0000 0000 000000
2016-06-24 03:19:30,0.03,0.07,0.00,20.06,25.54,28.76,14.68,45.43,1009.78,2046.99,3526.78,3057.13,3471.69,600.37,598.32,11.60,0000 0000 0000 0000 000000
2016-06-24 03:24:31,-0.03,0.07,0.00,20.12,25.58,28.84,14.65,45.38,1009.77,2046.73,3526.30,3056.98,3471.03,600.23,598.07,11.65,0000 0000 0000 0000 000000
2016-06-24 03:29:32,0.00,0.07,0.00,20.18,25.62,28.90,14.59,45.38,1009.71,2046.39,3525.96,3056.50,3470.82,599.94,597.57,11.70,0000 0000 0000 0000 000000
2016-06-24 03:34:33,0.00,0.07,0.00,20.19,25.67,28.96,14.63,45.49,1009.73,2046.02,3525.39,3056.01,3470.06,600.05,597.70,11.75,0000 0000 0000 0000 000000
2016-06-24 03:39:35,0.00,0.07,0.00,20.23,25.71,28.98,14.62,45.48,1009.78,2046.00,3525.01,3055.98,3469.99,599.88,597.37,11.80,0000 0000 0000 0000 000000
2016-06-24 03:44:36,0.04,0.07,0.00,20.28,25.76,29.05,14.64,45.52,1009.78,2046.00,3524.61,3055.56,3469.48,600.09,597.56,11.85,0000 0000 0000 0000 000000
2016-06-24 03:49:37,0.01,0.08,0.00,20.32,25.80,29.09,14.59,45.47,1009.78,2045.98,3524.00,3055.01,3469.00,599.94,597.31,11.90,0000 0000 0000 0000 000000
2016-06-24 03:54:38,0.01,0.08,0.00,20.37,25.84,29.12,14.60,45.43,1009.78,2045.89,3523.72,3054.82,3468.51,600.05,597.34,11.95,0000 0000 0000 0000 000000
2016-06-24 03:59:40,-0.03,0.07,0.00,20.44,25.88,29.17,14.62,45.42,1009.80,2045.35,3523.08,3054.12,3468.02,600.37,597.51,12.00,0000 0000 0000 0000 000000
2016-06-24 04:04:41,-0.01,0.07,0.00,20.48,25.92,29.18,14.61,45.39,1009.83,2045.06,3523.00,3054.00,3467.96,600.00,597.26,12.05,0000 0000 0000 0000 000000
2016-06-24 04:09:42,0.02,0.07,0.00,20.53,25.96,29.23,14.58,45.16,1010.00,2045.00,3522.43,3053.86,3467.24,600.29,597.40,12.11,0000 0000 0000 0000 000000
2016-06-24 04:14:43,0.02,0.08,0.00,20.58,25.99,29.29,14.67,45.13,1010.21,2045.00,3522.01,3053.20,3467.00,600.19,597.40,12.16,0000 0000 0000 0000 000000
2016-06-24 04:19:45,0.01,0.08,0.00,20.62,26.02,29.32,14.65,45.18,1010.09,2044.95,3521.67,3053.00,3466.75,600.13,597.07,12.21,0000 0000 0000 0000 000000
2016-06-24 04:24:46,-0.00,0.08,0.00,20.67,26.06,29.34,14.55,45.23,1010.24,2044.82,3521.06,3052.92,3466.06,599.62,596.55,12.26,0000 0000 0000 0000 000000
2016-06-24 04:29:47,-0.02,0.08,0.00,20.70,26.09,29.40,14.57,45.10,1010.27,2044.33,3520.98,3052.29,3465.98,599.82,596.64,12.31,0000 0000 0000 0000 000000
2016-06-24 04:34:48,0.00,0.08,0.00,20.72,26.12,29.44,14.58,45.12,1010.27,2044.05,3520.43,3052.00,3465.62,600.13,597.06,12.36,0000 0000 0000 0000 000000
2016-06-24 04:39:50,0.01,0.08,0.00,20.80,26.16,29.43,14.48,45.02,1010.27,2044.01,3520.01,3051.96,3465.04,599.92,596.60,12.41,0000 0000 0000 0000 000000
2016-06-24 04:44:51,0.03,0.08,0.00,20.82,26.20,29.51,14.57,45.08,1010.27,2044.00,3519.86,3051.20,3464.73,600.11,596.73,12.46,0000 0000 0000 0000 000000
2016-06-24 04:49:53,0.02,0.08,0.00,20.88,26.23,29.52,14.57,45.06,1010.27,2044.00,3519.17,3051.00,3464.12,599.68,596.25,12.51,0000 0000 0000 0000 000000
2016-06-24 04:54:54,0.00,0.08,0.00,20.89,26.27,29.58,14.62,45.19,1010.27,2043.98,3519.00,3050.97,3464.00,600.21,596.77,12.56,0000 0000 0000 0000 000000
2016-06-24 04:59:55,0.00,0.08,0.00,20.95,26.31,29.62,14.56,45.08,1010.27,2043.86,3518.99,3050.59,3463.85,599.74,596.20,12.61,0000 0000 0000 0000 000000
2016-06-24 05:04:57,-0.03,0.08,0.00,21.96,26.36,29.78,14.55,44.81,1010.27,2043.27,3518.72,3050.04,3463.10,600.33,594.74,12.66,0000 0000 0000 0000 000000
2016-06-24 05:09:58,-0.00,0.08,0.00,22.72,26.43,29.62,14.43,44.67,1010.42,2043.03,3518.10,3049.93,3462.84,600.31,593.17,12.71,0000 0000 0000 0000 000000
2016-06-24 05:14:59,0.03,0.08,0.00,23.01,26.50,29.57,14.43,44.51,1010.73,2042.99,3517.93,3049.14,3462.06,600.19,592.75,12.76,0000 0000 0000 0000 000000
2016-06-24 05:20:01,0.03,0.08,0.00,23.24,26.57,29.57,14.32,44.45,1010.63,2042.94,3516.96,3048.78,3461.47,599.91,591.98,12.81,0000 0000 0000 0000 000000
2016-06-24 05:25:02,-0.03,0.08,0.00,23.34,26.65,29.66,14.27,44.30,1010.30,2042.39,3515.94,3047.91,3460.58,600.03,591.70,12.86,0000 0000 0000 0000 000000
2016-06-24 05:30:03,0.06,0.08,0.00,23.15,26.73,29.78,14.38,44.45,1010.47,2042.01,3514.69,3046.87,3459.11,599.90,592.00,12.91,0000 0000 0000 0000 000000
2016-06-24 05:35:04,0.04,0.08,0.00,23.12,26.81,29.85,14.39,44.52,1010.69,2041.98,3514.04,3046.05,3458.48,599.91,592.25,12.96,0000 0000 0000 0000 000000
2016-06-24 05:40:06,-0.04,0.08,0.00,23.45,26.89,29.93,14.32,44.48,1010.77,2041.27,3513.56,3045.56,3457.86,600.37,592.03,13.01,0000 0000 0000 0000 000000
2016-06-24 05:45:07,0.24,0.08,0.00,23.52,26.98,30.03,14.27,44.43,1010.83,2041.00,3511.18,3043.16,3454.94,600.05,591.67,13.06,0000 0000 0000 0000 000000
2016-06-24 05:50:08,0.08,0.10,0.00,23.25,27.06,30.16,14.36,44.55,1010.91,2040.86,3507.78,3039.54,3451.02,599.89,592.05,13.11,0000 0000 0000 0000 000000
2016-06-24 05:55:09,-0.03,0.10,0.00,23.36,27.15,30.19,14.37,44.46,1010.99,2040.10,3506.99,3038.89,3450.11,600.09,592.09,13.16,0000 0000 0000 0000 000000
2016-06-24 06:00:11,0.04,0.10,0.00,23.52,27.23,30.25,14.38,44.48,1011.19,2040.00,3506.20,3038.10,3449.63,600.16,592.06,13.21,0000 0000 0000 0000 000000
2016-06-24 06:05:12,0.03,0.10,0.00,23.66,27.31,30.30,14.24,44.34,1011.24,2039.98,3505.62,3037.65,3448.98,599.77,591.34,13.26,0000 0000 0000 0000 000000
2016-06-24 06:10:13,-0.03,0.10,0.00,23.66,27.39,30.38,14.33,44.23,1011.24,2039.51,3504.99,3037.02,3448.24,599.92,591.46,13.31,0000 0000 0000 0000 000000
2016-06-24 06:15:15,0.02,0.10,0.00,23.73,27.46,30.42,14.36,44.29,1011.25,2039.05,3504.19,3036.44,3447.64,600.03,591.47,13.36,0000 0000 0000 0000 000000
2016-06-24 06:20:16,0.01,0.10,0.00,23.76,27.53,30.50,14.26,44.42,1011.27,2038.96,3503.47,3035.96,3446.92,599.74,591.26,13.41,0000 0000 0000 0000 000000
2016-06-24 06:25:17,-0.03,0.10,0.00,23.83,27.59,30.53,14.26,44.28,1011.47,2038.33,3503.01,3035.19,3446.09,599.55,590.90,13.46,0000 0000 0000 0000 000000
2016-06-24 06:30:18,0.01,0.10,0.00,23.80,27.65,30.60,14.24,44.27,1011.41,2038.01,3502.39,3034.96,3445.75,600.08,591.37,13.51,0000 0000 0000 0000 000000
2016-06-24 06:35:20,0.03,0.10,0.00,23.36,27.70,30.75,14.46,44.47,1011.47,2037.98,3501.91,3034.27,3445.04,600.49,592.70,13.56,0000 0000 0000 0000 000000
2016-06-24 06:40:21,0.01,0.10,0.00,23.52,27.74,30.76,14.37,44.40,1011.70,2037.93,3501.13,3034.00,3444.82,600.02,592.16,13.61,0000 0000 0000 0000 000000
2016-06-24 06:45:22,-0.03,0.10,0.00,23.71,27.79,30.78,14.39,44.27,1011.73,2037.49,3500.98,3033.84,3444.15,600.15,591.78,13.66,0000 0000 0000 0000 000000
2016-06-24 06:50:24,0.00,0.10,0.00,23.83,27.83,30.81,14.40,44.13,1011.65,2037.04,3500.59,3033.11,3443.98,599.93,591.42,13.71,0000 0000 0000 0000 000000
2016-06-24 06:55:25,0.02,0.10,0.00,23.86,27.87,30.81,14.34,44.33,1011.26,2037.00,3500.06,3033.00,3443.40,600.13,591.33,13.76,0000 0000 0000 0000 000000
2016-06-24 07:00:26,0.03,0.10,0.00,23.86,27.91,30.84,14.36,44.34,1011.25,2036.99,3499.58,3032.58,3443.00,600.06,591.17,13.81,0000 0000 0000 0000 000000
2016-06-24 07:05:28,0.01,0.10,0.00,23.85,27.96,30.87,14.35,44.23,1011.25,2036.91,3499.17,3032.03,3442.57,599.91,591.15,13.86,0000 0000 0000 0000 000000
2016-06-24 07:10:29,-0.03,0.10,0.00,23.83,28.00,30.92,14.35,44.34,1011.25,2036.58,3498.96,3032.00,3442.05,599.98,591.17,13.91,0000 0000 0000 0000 000000
2016-06-24 07:15:30,-0.02,0.10,0.00,23.79,28.03,30.95,14.31,44.16,1011.25,2036.08,3498.51,3031.85,3441.98,600.12,591.44,13.96,0000 0000 0000 0000 000000
2016-06-24 07:20:32,0.03,0.10,0.00,23.92,28.07,30.96,14.25,44.18,1011.26,2036.00,3498.25,3031.12,3441.40,599.46,590.53,14.01,0000 0000 0000 0000 000000
2016-06-24 07:25:33,0.00,0.10,0.00,23.93,28.11,30.97,14.28,44.15,1011.30,2036.00,3497.96,3031.00,3441.00,599.99,591.11,14.06,0000 0000 0000 0000 000000
2016-06-24 07:30:34,0.02,0.10,0.00,23.92,28.15,31.00,14.34,44.21,1011.39,2035.99,3497.52,3030.78,3440.81,599.87,591.04,14.11,0000 0000 0000 0000 000000
2016-06-24 07:35:35,0.02,0.10,0.00,23.94,28.18,31.02,14.34,44.23,1011.70,2035.93,3497.05,3030.09,3440.11,599.96,591.26,14.16,0000 0000 0000 0000 000000
2016-06-24 07:40:37,-0.06,0.10,0.00,23.94,28.21,31.03,14.34,44.34,1011.73,2035.33,3496.99,3030.00,3439.99,599.64,591.00,14.21,0000 0000 0000 0000 000000
2016-06-24 07:45:38,-0.00,0.10,0.00,23.94,28.24,31.05,14.24,44.23,1011.74,2035.06,3496.72,3029.91,3439.74,599.65,590.97,14.26,0000 0000 0000 0000 000000
2016-06-24 07:50:40,0.03,0.10,0.00,23.87,28.26,31.10,14.40,44.42,1011.73,2035.00,3496.07,3029.39,3439.09,600.24,591.72,14.31,0000 0000 0000 0000 000000
2016-06-24 07:55:41,0.00,0.10,0.00,23.97,28.29,31.10,14.36,44.36,1011.73,2035.00,3496.00,3029.02,3439.00,599.92,591.00,14.37,0000 0000 0000 0000 000000
2016-06-24 08:00:42,0.00,0.10,0.00,23.99,28.30,31.11,14.36,44.23,1011.74,2034.99,3495.74,3029.00,3438.93,600.21,591.40,14.42,0000 0000 0000 0000 000000
2016-06-24 08:05:43,0.01,0.10,0.00,24.04,28.32,31.10,14.33,44.11,1011.74,2034.97,3495.33,3028.97,3438.51,599.62,590.80,14.47,0000 0000 0000 0000 000000
2016-06-24 08:10:45,-0.01,0.10,0.00,24.05,28.35,31.12,14.33,44.11,1011.74,2034.78,3495.04,3028.71,3438.03,599.94,591.13,14.52,0000 0000 0000 0000 000000
2016-06-24 08:15:46,-0.03,0.10,0.00,24.00,28.36,31.14,14.30,44.22,1011.75,2034.41,3495.02,3028.32,3438.00,599.97,591.22,14.57,0000 0000 0000 0000 000000
2016-06-24 08:20:47,-0.01,0.10,0.00,24.02,28.37,31.15,14.39,43.98,1011.80,2034.05,3494.95,3028.02,3437.94,600.13,591.29,14.62,0000 0000 0000 0000 000000
2016-06-24 08:25:49,0.01,0.10,0.00,24.06,28.39,31.16,14.35,44.15,1011.88,2034.00,3494.62,3027.99,3437.42,599.84,591.21,14.67,0000 0000 0000 0000 000000
2016-06-24 08:30:50,0.00,0.10,0.00,24.07,28.40,31.17,14.32,44.08,1011.98,2034.00,3494.09,3027.98,3437.03,600.08,591.22,14.72,0000 0000 0000 0000 000000
2016-06-24 08:35:51,0.00,0.10,0.00,24.11,28.41,31.18,14.33,44.10,1012.12,2034.00,3494.02,3027.89,3437.00,599.84,591.04,14.77,0000 0000 0000 0000 000000
2016-06-24 08:40:52,0.02,0.10,0.00,24.07,28.42,31.19,14.37,43.98,1012.14,2033.99,3494.00,3027.24,3436.98,600.05,591.36,14.82,0000 0000 0000 0000 000000
2016-06-24 08:45:53,0.00,0.10,0.00,24.10,28.43,31.19,14.41,44.20,1012.17,2033.98,3493.98,3027.06,3436.92,600.19,591.40,14.87,0000 0000 0000 0000 000000
2016-06-24 08:50:55,0.00,0.10,0.00,24.15,28.45,31.17,14.42,43.96,1012.21,2033.97,3493.97,3027.00,3436.66,600.15,591.30,14.92,0000 0000 0000 0000 000000
2016-06-24 08:55:56,0.01,0.11,0.00,24.20,28.45,31.19,14.31,43.97,1012.22,2033.95,3493.83,3027.00,3436.25,599.86,590.99,14.97,0000 0000 0000 0000 000000
2016-06-24 09:00:57,0.00,0.11,0.00,24.20,28.47,31.20,14.34,44.04,1012.22,2033.88,3493.24,3027.00,3436.04,600.05,591.41,15.02,0000 0000 0000 0000 000000
2016-06-24 09:05:59,-0.02,0.11,0.00,24.24,28.47,31.19,14.37,43.94,1012.22,2033.65,3493.02,3026.97,3436.00,599.88,590.80,15.07,0000 0000 0000 0000 000000
2016-06-24 09:11:00,-0.03,0.10,0.00,24.26,28.48,31.21,14.31,44.02,1012.22,2033.23,3493.00,3026.83,3435.99,599.93,590.84,15.12,0000 0000 0000 0000 000000
2016-06-24 09:16:01,0.02,0.10,0.00,24.28,28.50,31.20,14.31,44.10,1012.22,2033.22,3493.00,3026.68,3435.97,599.88,590.80,15.17,0000 0000 0000 0000 000000
2016-06-24 09:21:03,-0.00,0.10,0.00,24.29,28.50,31.21,14.38,44.08,1012.22,2033.22,3492.99,3026.54,3435.93,600.29,591.13,15.22,0000 0000 0000 0000 000000
2016-06-24 09:26:04,0.01,0.10,0.00,24.33,28.50,31.20,14.30,43.92,1012.22,2033.19,3492.98,3026.24,3435.89,599.76,590.58,15.27,0000 0000 0000 0000 000000
2016-06-24 09:31:05,-0.00,0.10,0.00,24.35,28.51,31.20,14.30,43.98,1012.22,2033.09,3492.93,3026.16,3435.63,600.02,590.76,15.32,0000 0000 0000 0000 000000
2016-06-24 09:36:06,0.01,0.10,0.00,24.33,28.52,31.21,14.31,44.03,1012.23,2033.05,3492.43,3026.01,3435.10,599.81,590.64,15.37,0000 0000 0000 0000 000000
2016-06-24 09:41:08,0.00,0.10,0.00,24.34,28.52,31.20,14.38,44.13,1012.23,2033.04,3492.04,3026.00,3435.01,599.90,590.70,15.42,0000 0000 0000 0000 000000
2016-06-24 09:46:09,0.00,0.10,0.00,24.37,28.52,31.19,14.32,44.08,1012.22,2033.03,3492.00,3025.99,3435.00,600.11,590.93,15.47,0000 0000 0000 0000 000000
2016-06-24 09:51:11,-0.00,0.10,0.00,24.40,28.52,31.20,14.25,43.96,1012.22,2033.02,3491.99,3025.98,3434.99,599.82,590.54,15.52,0000 0000 0000 0000 000000
2016-06-24 09:56:12,0.00,0.10,0.00,24.43,28.52,31.20,14.37,44.09,1012.23,2033.02,3491.98,3025.96,3434.98,600.16,590.73,15.57,0000 0000 0000 0000 000000
2016-06-24 10:01:13,0.00,0.10,0.00,24.45,28.52,31.19,14.22,43.85,1012.23,2033.02,3491.92,3025.91,3434.94,599.84,590.38,15.62,0000 0000 0000 0000 000000
2016-06-24 10:06:14,0.00,0.10,0.00,24.47,28.54,31.20,14.32,44.01,1012.23,2033.02,3491.89,3025.87,3434.90,600.14,590.67,15.67,0000 0000 0000 0000 000000
2016-06-24 10:11:16,0.03,0.11,0.00,24.49,28.55,31.18,14.30,44.06,1012.37,2033.01,3491.32,3025.47,3434.45,599.75,590.31,15.72,0000 0000 0000 0000 000000
2016-06-24 10:16:17,0.00,0.11,0.00,24.50,28.55,31.19,14.35,44.11,1012.45,2033.01,3491.04,3025.22,3434.15,600.09,590.79,15.77,0000 0000 0000 0000 000000
2016-06-24 10:21:18,0.00,0.11,0.00,24.52,28.55,31.19,14.35,44.13,1012.50,2033.01,3491.01,3025.04,3434.03,600.38,590.87,15.82,0000 0000 0000 0000 000000
2016-06-24 10:26:19,0.00,0.11,0.00,24.51,28.56,31.20,14.33,44.11,1012.62,2033.00,3490.99,3025.00,3434.00,600.16,590.90,15.87,0000 0000 0000 0000 000000
2016-06-24 10:31:21,0.00,0.11,0.00,24.50,28.57,31.22,14.34,44.07,1012.48,2033.00,3490.97,3025.00,3434.00,600.13,590.80,15.92,0000 0000 0000 0000 000000
2016-06-24 10:36:22,0.00,0.11,0.00,24.49,28.57,31.23,14.35,44.17,1012.40,2033.00,3490.77,3025.00,3433.99,600.26,590.80,15.97,0000 0000 0000 0000 000000
2016-06-24 10:41:23,0.00,0.11,0.00,24.49,28.57,31.23,14.34,44.15,1012.40,2033.00,3490.37,3024.99,3433.99,599.91,590.49,16.02,0000 0000 0000 0000 000000
2016-06-24 10:46:24,0.01,0.11,0.00,24.51,28.57,31.22,14.34,44.03,1012.27,2033.00,3490.14,3024.97,3433.93,600.36,590.82,16.07,0000 0000 0000 0000 000000
2016-06-24 10:51:25,0.01,0.11,0.00,24.52,28.59,31.21,14.35,44.08,1012.25,2033.00,3490.01,3024.94,3433.45,600.13,590.58,16.12,0000 0000 0000 0000 000000
2016-06-24 10:56:27,0.01,0.11,0.00,24.53,28.60,31.22,14.35,44.23,1012.29,2033.00,3490.00,3024.79,3433.14,600.13,590.66,16.17,0000 0000 0000 0000 000000
2016-06-24 11:01:28,0.01,0.11,0.00,24.57,28.60,31.24,14.25,44.03,1012.47,2033.00,3489.99,3024.51,3433.04,599.67,590.15,16.22,0000 0000 0000 0000 000000
2016-06-24 11:06:29,0.01,0.11,0.00,24.60,28.60,31.25,14.41,44.08,1012.63,2033.00,3489.93,3024.11,3433.00,600.32,590.89,16.27,0000 0000 0000 0000 000000
2016-06-24 11:11:30,0.00,0.11,0.00,24.60,28.62,31.29,14.31,43.91,1012.69,2033.00,3489.64,3024.02,3433.00,599.85,590.44,16.32,0000 0000 0000 0000 000000
2016-06-24 11:16:31,0.00,0.11,0.00,24.62,28.62,31.32,14.33,44.10,1012.71,2033.00,3489.20,3024.01,3433.00,599.95,590.51,16.37,0000 0000 0000 0000 000000
2016-06-24 11:21:32,0.00,0.11,0.00,24.64,28.64,31.34,14.26,43.94,1012.70,2033.00,3489.02,3024.00,3432.95,599.97,590.45,16.42,0000 0000 0000 0000 000000
2016-06-24 11:26:34,0.00,0.11,0.00,24.67,28.65,31.36,14.29,43.90,1012.70,2033.00,3489.00,3024.00,3432.83,599.67,590.08,16.47,0000 0000 0000 0000 000000
2016-06-24 11:31:35,0.00,0.11,0.00,24.69,28.66,31.37,14.29,44.02,1012.71,2032.99,3488.99,3023.99,3432.37,599.87,590.27,16.52,0000 0000 0000 0000 000000
2016-06-24 11:36:36,0.00,0.11,0.00,24.70,28.67,31.37,14.28,43.90,1012.70,2032.98,3488.88,3023.92,3432.03,599.94,590.39,16.57,0000 0000 0000 0000 000000
2016-06-24 11:41:37,0.01,0.11,0.00,24.71,28.67,31.37,14.35,43.98,1012.71,2032.98,3488.54,3023.83,3432.01,600.06,590.41,16.62,0000 0000 0000 0000 000000
2016-06-24 11:46:39,0.01,0.11,0.00,24.70,28.70,31.38,14.37,43.88,1012.73,2032.97,3488.13,3023.41,3432.00,600.20,590.57,16.67,0000 0000 0000 0000 000000
2016-06-24 11:51:40,0.00,0.11,0.00,24.69,28.70,31.39,14.28,43.82,1012.73,2032.96,3488.01,3023.10,3431.99,600.32,590.71,16.72,0000 0000 0000 0000 000000
2016-06-24 11:56:41,0.00,0.11,0.00,24.66,28.70,31.41,14.28,43.88,1012.75,2032.92,3488.00,3023.00,3431.93,599.61,589.95,16.77,0000 0000 0000 0000 000000
2016-06-24 12:01:42,0.00,0.11,0.00,24.62,28.71,31.43,14.40,44.16,1012.80,2032.95,3488.00,3023.01,3431.93,600.33,590.86,16.82,0000 0000 0000 0000 000000
2016-06-24 12:06:43,0.00,0.11,0.00,24.58,28.71,31.43,14.36,43.92,1012.93,2032.94,3487.96,3023.00,3431.75,600.04,590.71,16.88,0000 0000 0000 0000 000000
2016-06-24 12:11:45,0.00,0.11,0.00,24.56,28.71,31.43,14.28,43.78,1012.95,2032.90,3487.82,3023.00,3431.49,599.71,590.54,16.93,0000 0000 0000 0000 000000
2016-06-24 12:16:46,0.01,0.11,0.00,24.53,28.70,31.42,14.31,43.87,1013.00,2032.89,3487.39,3023.00,3431.21,599.87,590.80,16.98,0000 0000 0000 0000 000000
2016-06-24 12:21:47,0.00,0.11,0.00,24.52,28.70,31.43,14.39,44.08,1013.13,2032.90,3487.10,3022.99,3431.05,600.24,591.22,17.03,0000 0000 0000 0000 000000
2016-06-24 12:26:48,0.00,0.12,0.00,24.48,28.70,31.45,14.34,43.90,1013.15,2032.93,3487.03,3022.98,3431.05,600.01,591.16,17.08,0000 0000 0000 0000 000000
2016-06-24 12:31:49,0.00,0.11,0.00,24.46,28.70,31.42,14.34,44.04,1013.08,2032.88,3487.00,3022.97,3431.02,600.27,591.31,17.13,0000 0000 0000 0000 000000
2016-06-24 12:36:51,0.00,0.12,0.00,24.44,28.68,31.43,14.35,44.10,1013.12,2032.94,3486.97,3022.90,3431.00,600.28,591.38,17.18,0000 0000 0000 0000 000000
2016-06-24 12:41:52,0.00,0.12,0.00,24.41,28.67,31.42,14.31,43.88,1013.03,2032.95,3486.91,3022.86,3431.00,600.15,591.21,17.23,0000 0000 0000 0000 000000
2016-06-24 12:46:53,0.01,0.12,0.00,24.36,28.67,31.41,14.33,43.99,1013.06,2032.98,3486.56,3022.63,3430.99,600.02,591.31,17.28,0000 0000 0000 0000 000000
2016-06-24 12:51:54,-0.00,0.12,0.00,24.37,28.65,31.40,14.29,44.04,1012.77,2032.98,3486.57,3022.80,3430.99,599.75,590.80,17.33,0000 0000 0000 0000 000000
2016-06-24 12:56:56,0.01,0.12,0.00,24.35,28.65,31.38,14.32,43.99,1012.72,2032.99,3486.18,3022.73,3430.99,599.88,590.92,17.38,0000 0000 0000 0000 000000